Location: Barcelona
(41.3829°N, 2.1774°E)
Time: 19:05:56
(UTC+00:00)

ISS - Pass Details

Date: 18 October 2025
Orbit: 414 x 421 km, 51.6° (Epoch: 07 November)

Event Time Altitude Azimuth Distance (km) Brightness Sun altitude
Exits shadow 05:05:17 19° 250° (WSW) 1,072 -2.3 -12.2°
Maximum altitude 05:07:32 62° 327° (NNW) 477 -3.7 -11.8°
Drops below altitude 10° 05:10:53 10° 49° (NE) 1,507 -0.2 -11.2°
Sets 05:13:01 0° 53° (NE) 2,375 0.9 -10.8°
